This demonstration page uses our WeatherBlox Daily Observations layout. Learn more.

38.89511, -77.03637

Hourly Observations for January 14, 2016

Temp ( °F °C ) Dew Point ( °F °C ) Humidity (%) Winds ( mph kmh ) Pressure ( in mb ) Visibility ( mi km ) Precip ( " mm )
12:52 am 00:52 Cloudy 28 -2.2 5 -15 37 37 E 3 6 30.03 1017 10 16.0934 0 0
1:52 am 01:52 Cloudy 28 -2.2 7 -13.9 41 41 SE 5 7 30.01 1016 10 16.0934 0 0
2:52 am 02:52 Cloudy 28 -2.2 9 -12.8 44 44 S 6 9 29.99 1016 10 16.0934 0 0
3:52 am 03:52 Mostly Cloudy 28 -2.2 10 -12.2 47 47 WSW 3 6 29.99 1016 10 16.0934 0 0
4:52 am 04:52 Cloudy 28 -2.2 11 -11.7 49 49 WSW 5 7 29.98 1015 10 16.0934 0 0
5:52 am 05:52 Cloudy 29 -1.7 14 -10 54 54 S 3 6 29.98 1015 10 16.0934 0 0
6:52 am 06:52 Mostly Clear 28 -2.2 13 -10.6 53 53 Calm 30 1016 10 16.0934 0 0
7:52 am 07:52 Mostly Sunny 28 -2.2 13 -10.6 53 53 SSW 7 11 30.01 1016 10 16.0934 0 0
8:52 am 08:52 Partly Cloudy 31 -0.6 13 -10.6 47 47 SSW 7 11 30 1016 10 16.0934 0 0
10:52 am 10:52 Mostly Sunny 39 3.9 22 -5.6 50 50 S 8 13 30.01 1016 10 16.0934 0 0
11:52 am 11:52 Mostly Sunny 42 5.6 23 -5 47 47 S 12 19 29.97 1015 10 16.0934 0 0
12:52 pm 12:52 Mostly Sunny 50 10 24 -4.4 36 36 SSW 10 17 29.95 1014 10 16.0934 0 0
1:52 pm 13:52 Mostly Sunny 52 11.1 25 -3.9 35 35 SSW 13 20 29.93 1014 10 16.0934 0 0
2:52 pm 14:52 Mostly Sunny 53 11.7 26 -3.3 35 35 SSW 16 26 29.92 1013 10 16.0934 0 0
3:52 pm 15:52 Mostly Sunny 52 11.1 28 -2.2 40 40 S 13 20 29.93 1014 10 16.0934 0 0
4:52 pm 16:52 Partly Cloudy 50 10 28 -2.2 43 43 S 10 17 29.94 1014 10 16.0934 0 0
5:52 pm 17:52 Partly Cloudy 46 7.8 31 -0.6 56 56 S 9 15 29.96 1014 10 16.0934 0 0
6:52 pm 18:52 Clear 43 6.1 31 -0.6 63 63 S 10 17 29.96 1015 10 16.0934 0 0
7:52 pm 19:52 Clear 43 6.1 31 -0.6 63 63 S 10 17 29.98 1015 10 16.0934 0 0
8:52 pm 20:52 Clear 44 6.7 30 -1.1 58 58 SW 5 7 29.97 1015 10 16.0934 0 0
9:52 pm 21:52 Clear 40 4.4 32 0 73 73 S 7 11 29.97 1015 10 16.0934 0 0
10:52 pm 22:52 Clear 42 5.6 30 -1.1 62 62 S 7 11 29.96 1015 10 16.0934 0 0
11:52 pm 23:52 Clear 41 5 30 -1.1 65 65 SSW 6 9 29.96 1014 10 16.0934 0 0

Powered by AerisWeather